Location: Coed Ely
(51.5661°N, 3.4150°W)
Time: 23:39:31
(UTC+00:00)

Cosmos 1346 Rocket - Pass Details

Date: 28 January 2021
Orbit: 532 x 546 km, 81.2° (Epoch: 01 March)

Event Time Altitude Azimuth Distance (km) Brightness Sun altitude
Rises 19:42:41 0° 215° (SW) 2,670 6.7 -25.7°
Reaches altitude 10° 19:44:58 10° 225° (SW) 1,786 5.9 -26.1°
Maximum altitude 19:48:33 33° 291° (WNW) 914 4.4 -26.6°
Enters shadow 19:50:28 21° 339° (NNW) 1,229 4.8 -26.9°
